| time (UTC) | temp F | wind direction | speed MPH | gust MPH | rain 1hr in | rain 24hr in | rain mn in | humidity % | barometer mb |
| 20260504201428 | 70 | 230 | 6.0 | 15.0 | 0.00 | 0.02 | 0.00 | 61 | 1008.1 |
| 20260504200527 | 70 | 226 | 3.0 | 14.0 | 0.00 | 0.02 | 0.00 | 61 | 1007.4 |
| 20260504195627 | 70 | 228 | 5.0 | 11.0 | 0.00 | 0.02 | 0.00 | 60 | 1007.6 |
| 20260504194727 | 70 | 200 | 3.0 | 10.0 | 0.00 | 0.02 | 0.00 | 61 | 1007.3 |
| 20260504193827 | 69 | 205 | 4.0 | 12.0 | 0.00 | 0.02 | 0.00 | 61 | 1007.6 |
| 20260504191126 | 70 | 240 | 7.0 | 20.0 | 0.00 | 0.02 | 0.00 | 59 | 1008.7 |
| 20260504190228 | 71 | 243 | 7.0 | 22.0 | 0.00 | 0.02 | 0.00 | 59 | 1008.5 |
| 20260504185328 | 71 | 238 | 5.0 | 16.0 | 0.00 | 0.02 | 0.00 | 59 | 1008.7 |
| 20260504184427 | 71 | 240 | 6.0 | 19.0 | 0.00 | 0.02 | 0.00 | 58 | 1008.4 |
| 20260504183527 | 71 | 231 | 5.0 | 13.0 | 0.00 | 0.02 | 0.00 | 58 | 1008.4 |
| 20260504182626 | 72 | 236 | 6.0 | 14.0 | 0.00 | 0.02 | 0.00 | 56 | 1008.1 |
| 20260504181727 | 72 | 238 | 4.0 | 17.0 | 0.00 | 0.02 | 0.00 | 56 | 1008.1 |
| 20260504180826 | 72 | 231 | 4.0 | 12.0 | 0.00 | 0.02 | 0.00 | 58 | 1008.0 |
| 20260504175926 | 72 | 232 | 6.0 | 14.0 | 0.00 | 0.02 | 0.00 | 57 | 1007.5 |
| 20260504175026 | 71 | 230 | 5.0 | 15.0 | 0.00 | 0.02 | 0.00 | 58 | 1007.7 |
| 20260504174126 | 71 | 230 | 5.0 | 15.0 | 0.00 | 0.02 | 0.00 | 58 | 1007.6 |
| 20260504173226 | 70 | 225 | 6.0 | 16.0 | 0.00 | 0.02 | 0.00 | 59 | 1007.7 |
| 20260504172326 | 70 | 229 | 5.0 | 18.0 | 0.00 | 0.02 | 0.00 | 58 | 1008.0 |
| 20260504171426 | 71 | 221 | 4.0 | 13.0 | 0.00 | 0.02 | 0.00 | 58 | 1008.0 |
| 20260504160226 | 69 | 222 | 2.0 | 9.0 | 0.00 | 0.02 | 0.00 | 59 | 1008.4 |
| 20260504150827 | 66 | 207 | 3.0 | 11.0 | 0.00 | 0.02 | 0.00 | 61 | 1008.9 |
| 20260504140527 | 62 | 209 | 5.0 | 12.0 | 0.00 | 0.02 | 0.00 | 63 | 1009.4 |
| 20260504130227 | 58 | 196 | 3.0 | 10.0 | 0.00 | 0.02 | 0.00 | 66 | 1009.8 |
| 20260504110526 | 48 | 0 | 0.0 | 0.0 | 0.00 | 0.02 | 0.00 | 75 | 1009.4 |
| 20260504100226 | 48 | 0 | 0.0 | 0.0 | 0.00 | 0.02 | 0.00 | 73 | 1009.9 |
| 20260504081425 | 50 | 173 | 0.0 | 3.0 | 0.00 | 0.02 | 0.00 | 68 | 1010.7 |
| 20260504080525 | 50 | 173 | 0.0 | 2.0 | 0.00 | 0.02 | 0.00 | 67 | 1010.6 |
| 20260504045625 | 54 | 181 | 1.0 | 6.0 | 0.00 | 0.02 | 0.00 | 61 | 1012.2 |
| 20260504044725 | 54 | 178 | 1.0 | 5.0 | 0.00 | 0.02 | 0.00 | 61 | 1012.3 |
| 20260504043826 | 54 | 184 | 0.0 | 5.0 | 0.00 | 0.02 | 0.00 | 61 | 1012.4 |
| 20260504042025 | 54 | 178 | 1.0 | 6.0 | 0.00 | 0.02 | 0.00 | 62 | 1012.5 |
| 20260504041125 | 54 | 178 | 0.0 | 4.0 | 0.00 | 0.02 | 0.00 | 62 | 1012.6 |
| 20260504040225 | 54 | 179 | 0.0 | 4.0 | 0.00 | 0.02 | 0.00 | 62 | 1012.5 |
| 20260504035325 | 54 | 175 | 1.0 | 7.0 | 0.00 | 0.02 | 0.02 | 63 | 1012.5 |
| 20260504034426 | 54 | 182 | 1.0 | 6.0 | 0.00 | 0.02 | 0.02 | 63 | 1012.6 |
| 20260504033526 | 54 | 174 | 0.0 | 6.0 | 0.00 | 0.02 | 0.02 | 63 | 1012.6 |
| 20260504031725 | 53 | 182 | 1.0 | 7.0 | 0.00 | 0.02 | 0.02 | 64 | 1012.8 |
| 20260504030825 | 53 | 158 | 0.0 | 2.0 | 0.00 | 0.02 | 0.02 | 65 | 1012.8 |
| 20260504025926 | 53 | 0 | 0.0 | 0.0 | 0.00 | 0.02 | 0.02 | 66 | 1012.9 |
| 20260504025025 | 52 | 0 | 0.0 | 0.0 | 0.00 | 0.02 | 0.02 | 67 | 1012.9 |
| 20260504024125 | 52 | 0 | 0.0 | 0.0 | 0.00 | 0.02 | 0.02 | 68 | 1013.0 |
| 20260504023225 | 53 | 0 | 0.0 | 0.0 | 0.00 | 0.02 | 0.02 | 69 | 1013.1 |
| 20260504022325 | 53 | 0 | 0.0 | 0.0 | 0.00 | 0.02 | 0.02 | 69 | 1013.2 |
| 20260504021426 | 52 | 191 | 0.0 | 2.0 | 0.00 | 0.02 | 0.02 | 68 | 1013.2 |
| 20260504020525 | 52 | 191 | 0.0 | 3.0 | 0.00 | 0.02 | 0.02 | 68 | 1013.2 |
| 20260504015625 | 52 | 191 | 0.0 | 3.0 | 0.00 | 0.02 | 0.02 | 68 | 1013.1 |
| 20260504014725 | 52 | 191 | 0.0 | 4.0 | 0.00 | 0.02 | 0.02 | 69 | 1013.1 |
| 20260504013826 | 52 | 0 | 0.0 | 0.0 | 0.00 | 0.02 | 0.02 | 69 | 1013.0 |
| 20260504012925 | 52 | 0 | 0.0 | 0.0 | 0.00 | 0.02 | 0.02 | 69 | 1012.9 |
| 20260504012025 | 52 | 0 | 0.0 | 0.0 | 0.00 | 0.02 | 0.02 | 69 | 1013.0 |
| 20260504011125 | 52 | 0 | 0.0 | 0.0 | 0.00 | 0.02 | 0.02 | 70 | 1012.9 |
| 20260504010224 | 52 | 0 | 0.0 | 0.0 | 0.00 | 0.02 | 0.02 | 70 | 1013.1 |
| 20260504005326 | 52 | 0 | 0.0 | 0.0 | 0.00 | 0.02 | 0.02 | 70 | 1013.0 |
| 20260504004425 | 52 | 0 | 0.0 | 0.0 | 0.00 | 0.02 | 0.02 | 69 | 1013.2 |
| 20260504003525 | 52 | 0 | 0.0 | 0.0 | 0.00 | 0.02 | 0.02 | 68 | 1013.0 |
| 20260504001724 | 52 | 0 | 0.0 | 0.0 | 0.00 | 0.02 | 0.02 | 69 | 1013.0 |
| 20260504000826 | 52 | 0 | 0.0 | 0.0 | 0.00 | 0.02 | 0.02 | 69 | 1013.1 |
| 20260503235924 | 52 | 0 | 0.0 | 0.0 | 0.00 | 0.02 | 0.02 | 68 | 1013.0 |
| 20260503235024 | 52 | 100 | 0.0 | 6.0 | 0.00 | 0.02 | 0.02 | 68 | 1012.8 |
| 20260503234125 | 52 | 165 | 1.0 | 7.0 | 0.00 | 0.02 | 0.02 | 68 | 1012.8 |
| 20260503233224 | 52 | 152 | 1.0 | 6.0 | 0.00 | 0.02 | 0.02 | 68 | 1012.8 |
| 20260503232324 | 52 | 155 | 0.0 | 6.0 | 0.00 | 0.02 | 0.02 | 70 | 1012.8 |
| 20260503231424 | 52 | 121 | 0.0 | 5.0 | 0.00 | 0.02 | 0.02 | 70 | 1013.1 |
| 20260503225625 | 53 | 0 | 0.0 | 0.0 | 0.00 | 0.02 | 0.02 | 71 | 1013.8 |
| 20260503224725 | 53 | 0 | 0.0 | 0.0 | 0.00 | 0.02 | 0.02 | 72 | 1014.0 |
| 20260503223824 | 53 | 0 | 0.0 | 0.0 | 0.00 | 0.02 | 0.02 | 73 | 1014.1 |
| 20260503222924 | 53 | 0 | 0.0 | 0.0 | 0.00 | 0.02 | 0.02 | 74 | 1014.2 |
| 20260503222024 | 53 | 0 | 0.0 | 0.0 | 0.00 | 0.02 | 0.02 | 74 | 1014.6 |
| 20260503221124 | 53 | 0 | 0.0 | 0.0 | 0.00 | 0.02 | 0.02 | 74 | 1014.8 |
| 20260503220224 | 53 | 0 | 0.0 | 0.0 | 0.01 | 0.02 | 0.02 | 74 | 1014.8 |
| 20260503215325 | 53 | 0 | 0.0 | 0.0 | 0.02 | 0.02 | 0.02 | 76 | 1014.7 |
| 20260503214425 | 52 | 0 | 0.0 | 0.0 | 0.02 | 0.02 | 0.02 | 75 | 1014.8 |
| 20260503213524 | 52 | 0 | 0.0 | 0.0 | 0.02 | 0.02 | 0.02 | 72 | 1015.0 |
| 20260503211724 | 53 | 28 | 1.0 | 9.0 | 0.02 | 0.02 | 0.02 | 66 | 1015.6 |
| 20260503210824 | 54 | 255 | 5.0 | 23.0 | 0.02 | 0.02 | 0.02 | 63 | 1016.2 |
| 20260503205024 | 58 | 260 | 7.0 | 20.0 | 0.00 | 0.00 | 0.00 | 53 | 1016.4 |
| 20260503203224 | 60 | 244 | 4.0 | 14.0 | 0.00 | 0.00 | 0.00 | 39 | 1015.6 |